ONEWEB-0179, 48212

Orbit data source: Space-Track

ONEWEB-0179, 48212 is a payload satellite owned by One Web (NAA) (UK) in LEO that was launched on Sun, 25 Apr 2021 UTC via a SOYUZ-2-1B launch vehicle from the Vostochny Cosmodrome (VOSTO). Payload-class satellites include a variety of spacecraft equipped with specific instruments for various scientific and technological missions. These include communications satellites like Starlink; space stations such as the ISS; scientific satellites like the Hubble; Earth observation satellites from companies like Planet Labs, Umbra, and HawkEye 360; GPS; miniature CubeSats for education and research; and military/defense satellites.

Loading next visibility...
Identifier
48212, 2021-031C
Orbit
LEO
Country
Flag of UKUK
Related business
Manufacturer
One Web
Mission
Operational Commercial Communications
Bus & Motor
ARROW, Unknown motor
Mass
148 kg wet, ~140 kg dry
Launch date (UTC)
2021-04-25 (5 years ago)
Launch vehicle
SOYUZ-2-1B
Launch site
Vostochny Cosmodrome (VOSTO)
Object type
Payload
Rocket body
Debris
Shape & HBR
Trap Box + 2 Pan, 6.7 m
Radar Cross Section
3.464 m², Large (>1 m²)

Expand to show TLE details & history
Last TLE update: 6 hours ago

TLE from 6 hours ago
0 ONEWEB-0179
1 48212U 21031C   26094.91668981  .00043127  00000-0  47700-1 0  9999
2 48212  87.8932 304.1379 0001612  52.9718 254.6822 13.71468853  5195
Epoch: 2026-04-04T22:00Z
TLE epoch observation values (Epoch: 2026-04-04T22:00:01.999Z)
Latitude
-52.55031°
Longitude
138.16129°
Altitude
1,015.091 km
Speed
7.343 km/s
True Right ascension
20h 05m 35s
True Declination
-52° 23' 24"
Sunlit
Object was in daylight at epoch
Visualization orbit readout
Latitude
Unknown
Longitude
Unknown
Altitude
Unknown
Speed
Unknown
Apparent Right ascension
Unknown
Apparent Declination
Unknown
Sunlit
N/A
Visualization observer readout
Local Sidereal Time
09:25:08
Azimuth
Unknown
Elevation
Unknown
Doppler factor
Unknown
Orbital elements
Apogee altitude
992.521 km
Perigee altitude
990.145 km
Semi-major axis
7,369.47 km
Eccentricity
0.00016
Inclination
87.8932°
RAAN
304.1379°
Arg. of periapsis
52.9718°
True anomaly
254.66439°
Mean anomaly
254.6822°
Eccentric anomaly
254.67329°
Mean motion
3.43075 °/min
Orbital period
104.93 mins
BSTAR
0.0477
Loading maneuver chart data...
Computing Atmospheric mass density...
Loading historical data...
Loading historical data...
Loading historical data...
Loading historical data...
Loading historical data...
Loading historical data...
Loading historical data...

Documentation

Showing up to 5 results
|